Regional Weather Roundup
Issued by NWS

Home | Current Version | Previous Version | Graphics & Text | Print | Product List | Glossary On
Versions: 1 2 3 4 5 6 7 8 9 10 11 12 13 14 15 16 17 18 19 20 21 22 23 24 25 26 27 28 29 30 31 32 33 34 35 36 37 38 39 40 41 42 43 44 45 46 47 48 49 50
000
ASUS43 KMPX 191210
RWRMN
WEATHER ROUNDUP FOR MINNESOTA
NATIONAL WEATHER SERVICE TWIN CITIES/CHANHASSEN MN
700 AM CDT SAT AUG 19 2017


NOTE: "FAIR" INDICATES FEW OR NO CLOUDS BELOW 12,000 FEET WITH NO
SIGNIFICANT WEATHER AND/OR OBSTRUCTIONS TO VISIBILITY. N/A MEANS
CURRENT SKY AND/OR WEATHER CONDITIONS ARE NOT AVAILABLE.

MNZ060>063-068>070-191300-
   Twin Cities Metro

CITY           SKY/WX    TMP DP  RH WIND       PRES   REMARKS
TWIN CITIES    PTCLDY    60  57  89 SW3       29.94R FOG
6HR MIN TEMP:  59; 6HR MAX TEMP:  63;

ST PAUL        CLEAR     58  58 100 CALM      29.95R FOG
CRYSTAL        CLEAR     55  53  93 CALM      29.92R FOG
BLAINE         CLEAR     57  57 100 CALM      29.93R FOG
LAKEVILLE      FOG       54  54 100 SW3       29.95R VSB 3/4
EDEN PRAIRIE     N/A     58  57  97 SW5       29.93R VSB<1/4
6HR MIN TEMP:  57; 6HR MAX TEMP:  62;

SOUTH ST PAUL  CLEAR     56  56 100 CALM      29.94R FOG
LAKE ELMO      FOG       54  54 100 CALM      29.95R VSB<1/4
$$
MNZ001>005-007-008-013>017-022>024-027-028-191300-
   Northwest Minnesota

CITY           SKY/WX    TMP DP  RH WIND       PRES   REMARKS
BEMIDJI        CLEAR     55  53  96 W3        29.89R
HALLOCK        CLEAR     52  52 100 S8        29.82R
ROSEAU         CLEAR     52  46  82 S6        29.83S
WARROAD        PTCLDY    55  52  88 SW6       29.84R
THIEF RVR FALL CLEAR     55  54  96 S6        29.87S
CROOKSTON      CLEAR     54  54 100 S7        29.86S FOG
FOSSTON        CLEAR     54  54 100 S6        29.89S FOG
DETROIT LAKES  CLEAR     59  57  94 SW3       29.92R
MOORHEAD       CLEAR     55  54  94 S6        29.90R FOG
PARK RAPIDS    FOG       52  51  97 CALM      29.91R VSB 1
MAHNOMEN       FAIR      56  55  99 S7        29.89S
$$
MNZ006-009>011-018-025>026-191300-
   North Central Minnesota

CITY           SKY/WX    TMP DP  RH WIND       PRES   REMARKS
BAUDETTE       CLEAR     53  53 100 S3        29.84R
FLAG ISLAND    CLEAR     61  54  77 CALM      29.81R
INTL FALLS     CLEAR     52  51  97 CALM      29.86R FOG
6HR MIN TEMP:  50; 6HR MAX TEMP:  58;

WASKISH        CLEAR     54  54 100 CALM      29.87R FOG
BIG FORK       FOG       52  52 100 CALM      29.89R VSB<1/4
LONGVILLE      MOCLDY    52  52 100 CALM      29.90S FOG
GRAND RAPIDS   CLEAR     57  57 100 CALM      29.92R FOG
CRANE LAKE     CLEAR     45  45 100 CALM      29.88R FOG
ORR            PTCLDY    54  52  94 CALM      29.86R FOG
COOK           CLEAR     54  52  94 CALM      29.89R FOG
WALKER         FAIR      56  55  96 W3        29.90R
$$
MNZ012-019>021-037-191300-
   Northeast Minnesota

CITY           SKY/WX    TMP DP  RH WIND       PRES   REMARKS
DULUTH         CLEAR     58  58 100 NW6       29.89R
6HR MIN TEMP:  57; 6HR MAX TEMP:  58;

ELY            CLEAR     54  54 100 CALM      29.88R FOG
HIBBING        CLEAR     46  46 100 SE3       29.89R FOG
EVELETH        FOG       53  50  92 CALM      29.90R VSB<1/4
DULUTH HARBOR  CLEAR     59  57  94 SW12      29.88R
TWO HARBORS    CLEAR     61  55  82 NW5       29.86R
SILVER BAY     CLEAR     59  57  94 CALM      29.84S
GRAND MARAIS     N/A     63  59  87 W6        29.81R
G MARAIS ARPRT CLEAR     55  52  88 CALM      29.87R FOG
$$
MNZ029>031-032-039>041-046>048-054>057-064-191300-
   West Central Minnesota

CITY           SKY/WX    TMP DP  RH WIND       PRES   REMARKS
FERGUS FALLS   CLEAR     57  57 100 CALM      29.93R
WHEATON        CLEAR     55  52  88 S3        29.94R
MORRIS         MOCLDY    54  54 100 CALM      29.93R FOG
ALEXANDRIA     CLEAR     57  56  96 W6        29.95R
ELBOW LAKE     FAIR      54  54 100 S5        29.93R FOG
WADENA         FOG       54  54 100 CALM      29.92R VSB 1/2
GLENWOOD       FOG       55  55 100 SW3       29.94R VSB 1/4
APPLETON       FOG       54  52  94 CALM      29.93R VSB<1/4
BENSON         FOG       54  52  94 CALM      29.95R VSB<1/4
ORTONVILLE     CLEAR     55  54  94 MISG      29.93R
MADISON        CLEAR     54  54 100 CALM      29.94R FOG
WILLMAR        FOG       54  54 100 CALM      29.96R VSB 1/4
$$
MNZ033>034-036-042>043-049>051-058-059-191300-
   Central Minnesota

CITY           SKY/WX    TMP DP  RH WIND       PRES   REMARKS
ST CLOUD       FOG       52  52 100 CALM      29.93R VSB<1/4
6HR MIN TEMP:  51; 6HR MAX TEMP:  56;

SAUK CENTRE    FOG       53  53 100 CALM      29.94R VSB 1/2
PAYNESVILLE    FOG       51  51 100 CALM      29.94R VSB 1/4
AITKIN         FOG       50  48  93 CALM      29.90R VSB<1/4
PINE RIVER     FOG       48  48 100 MISG      29.95R VSB<1/4
BRAINERD       CLEAR     54  54 100 S5        29.92R FOG
STAPLES        CLEAR     54  54 100 CALM      29.92R
LONG PRAIRIE   FOG       52  52 100 CALM      29.94R VSB<1/4
LITTLE FALLS   FOG       50  50 100 CALM      29.93R VSB 1/4
LITCHFIELD     CLEAR     55  55 100 CALM      29.95R FOG
BUFFALO        FOG       55  53  95 CALM      29.95R VSB<1/4
MAPLE LAKE     FOG       54  54  99 CALM      29.94R VSB 1/2
HUTCHINSON     FOG       56  56 100 CALM      29.96R VSB<1/4
$$
MNZ037-044-045-052-053-191300-
   East Central Minnesota

CITY           SKY/WX    TMP DP  RH WIND       PRES   REMARKS
PRINCETON      FOG       54  52  94 CALM      29.93R VSB<1/4
MORA           FOG       50  50 100 CALM      29.93S VSB 1/4
CAMBRIDGE      FOG       55  55 100 CALM      29.93R VSB 3/4
RUSH CITY      FOG       53  53  97 CALM      29.92S VSB 1/4
MOOSE LAKE     FOG       50  48  93 CALM      29.89S VSB 1/4
HINCKLEY       FAIR      52  52 100 CALM      29.92R FOG
CLOQUET        CLEAR     57  55  94 W6        29.90R
MCGREGOR       CLOUDY    54  52  94 CALM      29.92R VSB<1/4
$$
MNZ071>073-080-081-089-090-097-098-191300-
   Southwest Minnesota

CITY           SKY/WX    TMP DP  RH WIND       PRES   REMARKS
MONTEVIDEO     FOG       54  54 100 CALM      29.94R VSB 1/4
GRANITE FALLS  FOG       56  56 100 CALM      29.97R VSB 1/4
CANBY          CLEAR     55  54  96 CALM      29.96R
MARSHALL       CLEAR     55  54  96 SW3       29.96R
REDWOOD FALLS  FOG       55  54  96 SW3       29.95R VSB 1/4
OLIVIA         FOG       54  52  94 CALM      29.95R VSB 3/4
PIPESTONE      FOG       54  52  94 CALM      29.98R VSB<1/4
WINDOM         FOG       55  54  94 SW3       29.98R VSB 1/4
WORTHINGTON    FOG       57  56  96 CALM      29.99R VSB<1/4
JACKSON        FOG       52  52 100 CALM      29.99R VSB<1/4
TRACY            N/A     57  57 100 SW5       29.96R FOG
SLAYTON        FOG       57  54  88 CALM      29.98R VSB 1/4
$$
MNZ065>067-074>077-082>085-091>093-191300-
   South Central Minnesota

CITY           SKY/WX    TMP DP  RH WIND       PRES   REMARKS
MANKATO        FOG       58  58 100 SW3       29.97R VSB 1/4
NEW ULM        FOG       55  55 100 CALM      29.96R VSB<1/4
ST JAMES       FOG       57  55  94 CALM      29.98R VSB<1/4
FAIRMONT       FOG       53  52  96 CALM      29.98R VSB 1/4
GLENCOE        FOG       55  55 100 S3        29.95R VSB 1/2
FARIBAULT      FOG       55  55 100 SW5       29.96R VSB<1/4
OWATONNA       FOG       54  52  94 CALM      29.97R VSB 1
WASECA           N/A     52  50  93 CALM      29.98R FOG
ALBERT LEA     MOCLDY    55  55 100 CALM      29.97R FOG
$$
MNZ078>079-086>088-094>096-191300-
   Southeast Minnesota

CITY           SKY/WX    TMP DP  RH WIND       PRES   REMARKS
ROCHESTER      CLEAR     52  52 100 SW5       29.96R
6HR MIN TEMP:  51; 6HR MAX TEMP:  58;

RED WING       FOG       57  55  94 CALM      29.93R VSB<1/4
STANTON        FOG       53  51  95 CALM      29.94R VSB 1/4
DODGE CENTER   CLEAR     52  52 100 CALM      29.96R FOG
WINONA         FOG       55  55 100 CALM      29.95R VSB 3/4
AUSTIN         CLEAR     54  52  94 CALM      29.97R FOG
PRESTON        CLEAR     52  50  94 S3        29.96R FOG
$$
ABBREVIATIONS USED IN REMARKS
   TC - TEMPERATURES IN CELSIUS
  WCI - WIND CHILL INDEX
   HX - HEAT INDEX
  VSB - VISIBILITY
$$




USA.gov is the U.S. government's official web portal to all federal, state and local government web resources and services.